| time (UTC) | temp F | wind direction | speed MPH | gust MPH | rain 1hr in | rain 24hr in | rain mn in | humidity % | barometer mb |
| 20260831111208 | 67 | 161 | 7.0 | 14.0 | 0.01 | 0.21 | 0.12 | 87 | 1004.3 |
| 20260831110708 | 66 | 165 | 10.0 | 18.0 | 0.01 | 0.21 | 0.12 | 87 | 1004.2 |
| 20260831105208 | 66 | 160 | 10.0 | 16.0 | 0.01 | 0.21 | 0.12 | 89 | 1004.2 |
| 20260831103706 | 66 | 165 | 12.0 | 18.0 | 0.02 | 0.20 | 0.11 | 91 | 1004.2 |
| 20260831101707 | 63 | 206 | 5.0 | 7.0 | 0.07 | 0.20 | 0.11 | 90 | 1004.6 |
| 20260831101206 | 63 | 169 | 7.0 | 15.0 | 0.07 | 0.20 | 0.11 | 89 | 1004.6 |
| 20260831095705 | 63 | 165 | 10.0 | 16.0 | 0.07 | 0.20 | 0.11 | 88 | 1004.8 |
| 20260831095206 | 64 | 173 | 6.0 | 13.0 | 0.07 | 0.21 | 0.11 | 88 | 1004.8 |
| 20260831094707 | 64 | 170 | 7.0 | 16.0 | 0.07 | 0.22 | 0.11 | 86 | 1004.8 |
| 20260831094206 | 65 | 174 | 8.0 | 18.0 | 0.07 | 0.22 | 0.11 | 86 | 1004.8 |
| 20260831091706 | 65 | 152 | 14.0 | 23.0 | 0.00 | 0.15 | 0.03 | 90 | 1004.9 |
| 20260831091207 | 65 | 150 | 16.0 | 22.0 | 0.00 | 0.15 | 0.03 | 91 | 1004.9 |
| 20260831090706 | 65 | 162 | 13.0 | 20.0 | 0.00 | 0.15 | 0.03 | 91 | 1004.9 |
| 20260831085706 | 65 | 150 | 8.0 | 13.0 | 0.00 | 0.15 | 0.03 | 92 | 1005.0 |
| 20260831084706 | 64 | 146 | 7.0 | 8.0 | 0.00 | 0.15 | 0.03 | 92 | 1005.1 |
| 20260831083706 | 64 | 163 | 7.0 | 10.0 | 0.00 | 0.15 | 0.03 | 92 | 1005.3 |
| 20260831083206 | 64 | 168 | 6.0 | 7.0 | 0.00 | 0.15 | 0.03 | 92 | 1005.3 |
| 20260831082706 | 63 | 178 | 7.0 | 10.0 | 0.00 | 0.15 | 0.03 | 92 | 1005.4 |
| 20260831082206 | 63 | 170 | 8.0 | 13.0 | 0.00 | 0.15 | 0.03 | 92 | 1005.4 |
| 20260831081706 | 63 | 153 | 9.0 | 13.0 | 0.00 | 0.15 | 0.03 | 93 | 1005.2 |
| 20260831080205 | 63 | 182 | 6.0 | 14.0 | 0.00 | 0.15 | 0.03 | 92 | 1005.3 |
| 20260831075705 | 63 | 149 | 9.0 | 14.0 | 0.01 | 0.15 | 0.03 | 93 | 1005.3 |
| 20260831074706 | 62 | 149 | 10.0 | 15.0 | 0.02 | 0.16 | 0.03 | 92 | 1005.3 |
| 20260831074206 | 62 | 132 | 6.0 | 9.0 | 0.02 | 0.18 | 0.03 | 93 | 1005.3 |
| 20260831073209 | 62 | 131 | 6.0 | 9.0 | 0.02 | 0.18 | 0.03 | 92 | 1005.3 |
| 20260831072706 | 61 | 126 | 8.0 | 13.0 | 0.02 | 0.18 | 0.03 | 92 | 1005.2 |
| 20260831070206 | 61 | 154 | 2.0 | 6.0 | 0.02 | 0.18 | 0.03 | 92 | 1005.8 |
| 20260831065706 | 61 | 162 | 3.0 | 7.0 | 0.01 | 0.17 | 0.02 | 93 | 1005.7 |
| 20260831062706 | 60 | 153 | 10.0 | 13.0 | 0.00 | 0.16 | 0.01 | 92 | 1005.7 |
| 20260831062207 | 60 | 152 | 7.0 | 10.0 | 0.00 | 0.16 | 0.01 | 93 | 1005.6 |
| 20260831061206 | 60 | 137 | 3.0 | 5.0 | 0.00 | 0.16 | 0.01 | 92 | 1005.5 |
| 20260831060706 | 59 | 138 | 6.0 | 8.0 | 0.00 | 0.16 | 0.01 | 92 | 1005.6 |
| 20260831060206 | 59 | 129 | 6.0 | 6.0 | 0.01 | 0.16 | 0.01 | 92 | 1005.6 |
| 20260831054206 | 59 | 133 | 6.0 | 7.0 | 0.01 | 0.16 | 0.01 | 92 | 1005.8 |
| 20260831053707 | 59 | 133 | 6.0 | 7.0 | 0.01 | 0.16 | 0.01 | 92 | 1005.8 |
| 20260831053206 | 58 | 131 | 5.0 | 7.0 | 0.01 | 0.16 | 0.01 | 92 | 1005.8 |
| 20260831052206 | 58 | 121 | 6.0 | 6.0 | 0.01 | 0.16 | 0.01 | 92 | 1005.8 |
| 20260831050705 | 58 | 123 | 5.0 | 7.0 | 0.01 | 0.16 | 0.01 | 92 | 1006.0 |
| 20260831045706 | 58 | 122 | 7.0 | 8.0 | 0.00 | 0.16 | 0.00 | 92 | 1006.0 |
| 20260831044705 | 57 | 133 | 5.0 | 6.0 | 0.00 | 0.17 | 0.00 | 92 | 1006.1 |
| 20260831043205 | 57 | 146 | 5.0 | 8.0 | 0.00 | 0.17 | 0.00 | 92 | 1006.3 |
| 20260831040705 | 57 | 159 | 6.0 | 7.0 | 0.00 | 0.17 | 0.00 | 92 | 1006.4 |
| 20260831035705 | 57 | 157 | 5.0 | 6.0 | 0.00 | 0.17 | 0.00 | 91 | 1006.3 |
| 20260831034706 | 57 | 165 | 5.0 | 6.0 | 0.00 | 0.17 | 0.00 | 91 | 1006.4 |
| 20260831034206 | 57 | 161 | 5.0 | 7.0 | 0.00 | 0.17 | 0.00 | 92 | 1006.4 |
| 20260831032706 | 57 | 154 | 5.0 | 6.0 | 0.00 | 0.17 | 0.00 | 91 | 1006.2 |
| 20260831032205 | 57 | 157 | 5.0 | 6.0 | 0.00 | 0.17 | 0.00 | 91 | 1006.2 |
| 20260831031206 | 57 | 163 | 5.0 | 7.0 | 0.00 | 0.17 | 0.00 | 91 | 1006.5 |
| 20260831030705 | 57 | 162 | 5.0 | 7.0 | 0.00 | 0.17 | 0.00 | 91 | 1006.5 |
| 20260831030205 | 57 | 153 | 5.0 | 7.0 | 0.00 | 0.17 | 0.00 | 91 | 1006.6 |
| 20260831025705 | 57 | 156 | 5.0 | 7.0 | 0.00 | 0.17 | 0.00 | 91 | 1006.6 |
| 20260831024706 | 57 | 154 | 5.0 | 6.0 | 0.00 | 0.17 | 0.00 | 91 | 1006.6 |
| 20260831023207 | 57 | 169 | 5.0 | 7.0 | 0.00 | 0.17 | 0.00 | 91 | 1006.8 |
| 20260831022707 | 57 | 162 | 5.0 | 8.0 | 0.00 | 0.17 | 0.00 | 91 | 1006.7 |
| 20260831021705 | 57 | 156 | 5.0 | 7.0 | 0.00 | 0.17 | 0.00 | 91 | 1006.9 |
| 20260831021206 | 57 | 172 | 5.0 | 8.0 | 0.00 | 0.17 | 0.00 | 91 | 1006.9 |
| 20260831020705 | 57 | 174 | 5.0 | 7.0 | 0.00 | 0.17 | 0.00 | 91 | 1006.9 |
| 20260831020206 | 57 | 174 | 5.0 | 8.0 | 0.00 | 0.17 | 0.00 | 91 | 1006.9 |
| 20260831015206 | 56 | 167 | 6.0 | 7.0 | 0.00 | 0.17 | 0.00 | 91 | 1007.0 |
| 20260831014707 | 56 | 172 | 6.0 | 7.0 | 0.00 | 0.17 | 0.00 | 91 | 1007.0 |
| 20260831013207 | 56 | 162 | 6.0 | 7.0 | 0.00 | 0.17 | 0.00 | 90 | 1006.9 |
| 20260831011205 | 57 | 175 | 5.0 | 7.0 | 0.00 | 0.17 | 0.00 | 90 | 1006.9 |
| 20260831010205 | 57 | 165 | 5.0 | 8.0 | 0.00 | 0.17 | 0.00 | 90 | 1006.9 |
| 20260831005707 | 57 | 169 | 5.0 | 7.0 | 0.00 | 0.17 | 0.00 | 90 | 1007.0 |
| 20260831004207 | 57 | 183 | 6.0 | 10.0 | 0.00 | 0.19 | 0.00 | 90 | 1007.1 |
| 20260831003705 | 57 | 169 | 6.0 | 8.0 | 0.00 | 0.19 | 0.00 | 90 | 1007.1 |
| 20260831003206 | 57 | 174 | 6.0 | 10.0 | 0.00 | 0.19 | 0.00 | 90 | 1007.1 |
| 20260831002705 | 57 | 172 | 6.0 | 6.0 | 0.00 | 0.19 | 0.00 | 90 | 1007.1 |
| 20260831002205 | 57 | 166 | 6.0 | 7.0 | 0.00 | 0.19 | 0.00 | 90 | 1007.0 |
| 20260831001205 | 57 | 159 | 6.0 | 13.0 | 0.00 | 0.19 | 0.00 | 90 | 1007.0 |
| 20260831000206 | 57 | 167 | 7.0 | 7.0 | 0.00 | 0.19 | 0.00 | 90 | 1007.0 |
| 20260830235206 | 57 | 172 | 5.0 | 8.0 | 0.00 | 0.19 | 0.00 | 89 | 1007.0 |
| 20260830233205 | 58 | 177 | 3.0 | 6.0 | 0.00 | 0.19 | 0.00 | 89 | 1006.9 |
| 20260830231205 | 58 | 167 | 5.0 | 7.0 | 0.00 | 0.19 | 0.00 | 89 | 1006.8 |
| 20260830230206 | 58 | 160 | 5.0 | 5.0 | 0.00 | 0.19 | 0.00 | 89 | 1006.8 |
| 20260830224705 | 59 | 160 | 4.0 | 6.0 | 0.00 | 0.19 | 0.00 | 89 | 1006.8 |
| 20260830224205 | 59 | 159 | 3.0 | 6.0 | 0.00 | 0.19 | 0.00 | 88 | 1006.8 |
| 20260830223205 | 59 | 162 | 3.0 | 5.0 | 0.00 | 0.19 | 0.00 | 89 | 1006.8 |
| 20260830222205 | 59 | 186 | 3.0 | 6.0 | 0.00 | 0.19 | 0.00 | 89 | 1006.9 |
| 20260830221206 | 59 | 193 | 2.0 | 5.0 | 0.00 | 0.19 | 0.00 | 88 | 1006.8 |
| 20260830220705 | 59 | 197 | 3.0 | 5.0 | 0.00 | 0.19 | 0.00 | 88 | 1006.9 |
| 20260830215708 | 59 | 210 | 3.0 | 6.0 | 0.00 | 0.19 | 0.19 | 87 | 1006.8 |
| 20260830215205 | 59 | 224 | 3.0 | 3.0 | 0.00 | 0.19 | 0.19 | 87 | 1006.8 |
| 20260830213206 | 60 | 219 | 5.0 | 6.0 | 0.00 | 0.19 | 0.19 | 87 | 1006.8 |
| 20260830212707 | 60 | 228 | 3.0 | 5.0 | 0.00 | 0.19 | 0.19 | 86 | 1006.8 |
| 20260830212205 | 60 | 208 | 3.0 | 5.0 | 0.00 | 0.19 | 0.19 | 86 | 1006.8 |
| 20260830211707 | 60 | 230 | 4.0 | 6.0 | 0.00 | 0.19 | 0.19 | 86 | 1006.7 |
| 20260830205707 | 61 | 232 | 3.0 | 6.0 | 0.00 | 0.19 | 0.19 | 86 | 1006.6 |
| 20260830205206 | 61 | 268 | 1.0 | 7.0 | 0.00 | 0.19 | 0.19 | 85 | 1006.6 |
| 20260830202206 | 61 | 224 | 4.0 | 7.0 | 0.00 | 0.19 | 0.19 | 85 | 1006.7 |
| 20260830201207 | 61 | 265 | 4.0 | 7.0 | 0.00 | 0.19 | 0.19 | 85 | 1006.5 |
| 20260830200705 | 61 | 268 | 5.0 | 10.0 | 0.00 | 0.19 | 0.19 | 85 | 1006.4 |
| 20260830200205 | 61 | 240 | 3.0 | 8.0 | 0.00 | 0.19 | 0.19 | 85 | 1006.4 |
| 20260830195206 | 62 | 236 | 5.0 | 10.0 | 0.00 | 0.19 | 0.19 | 85 | 1006.3 |
| 20260830194708 | 62 | 232 | 6.0 | 13.0 | 0.00 | 0.19 | 0.19 | 86 | 1006.3 |
| 20260830194205 | 61 | 254 | 9.0 | 14.0 | 0.00 | 0.19 | 0.19 | 86 | 1006.1 |
| 20260830193205 | 61 | 247 | 7.0 | 16.0 | 0.00 | 0.19 | 0.19 | 87 | 1006.1 |
| 20260830192706 | 61 | 236 | 8.0 | 16.0 | 0.00 | 0.19 | 0.19 | 87 | 1006.1 |
| 20260830191705 | 61 | 245 | 7.0 | 15.0 | 0.00 | 0.19 | 0.19 | 87 | 1006.0 |
| 20260830191208 | 61 | 233 | 6.0 | 13.0 | 0.00 | 0.19 | 0.19 | 87 | 1005.8 |
| 20260830190707 | 61 | 245 | 9.0 | 17.0 | 0.00 | 0.19 | 0.19 | 87 | 1005.8 |
| 20260830185705 | 62 | 253 | 6.0 | 9.0 | 0.00 | 0.19 | 0.19 | 87 | 1005.5 |
| 20260830185205 | 62 | 245 | 6.0 | 13.0 | 0.00 | 0.19 | 0.19 | 87 | 1005.5 |
| 20260830183704 | 62 | 243 | 5.0 | 8.0 | 0.00 | 0.19 | 0.19 | 87 | 1005.5 |
| 20260830181705 | 63 | 260 | 5.0 | 14.0 | 0.00 | 0.19 | 0.19 | 87 | 1005.0 |
| 20260830180708 | 63 | 257 | 8.0 | 15.0 | 0.00 | 0.19 | 0.19 | 88 | 1004.8 |
| 20260830175204 | 63 | 263 | 9.0 | 15.0 | 0.00 | 0.19 | 0.19 | 88 | 1004.7 |
| 20260830174704 | 63 | 247 | 8.0 | 14.0 | 0.00 | 0.19 | 0.19 | 88 | 1004.5 |
| 20260830173706 | 63 | 273 | 9.0 | 15.0 | 0.00 | 0.19 | 0.19 | 88 | 1004.5 |
| 20260830172706 | 64 | 255 | 7.0 | 15.0 | 0.00 | 0.19 | 0.19 | 88 | 1004.3 |
| 20260830171205 | 64 | 287 | 7.0 | 13.0 | 0.00 | 0.19 | 0.19 | 88 | 1004.0 |
| 20260830170205 | 64 | 287 | 7.0 | 13.0 | 0.00 | 0.19 | 0.19 | 88 | 1003.8 |
| 20260830164205 | 64 | 297 | 12.0 | 20.0 | 0.00 | 0.19 | 0.19 | 88 | 1003.6 |
| 20260830163204 | 64 | 283 | 13.0 | 21.0 | 0.00 | 0.19 | 0.19 | 88 | 1003.3 |
| 20260830162706 | 64 | 285 | 14.0 | 22.0 | 0.00 | 0.19 | 0.19 | 88 | 1003.1 |
| 20260830160706 | 65 | 291 | 9.0 | 14.0 | 0.00 | 0.19 | 0.19 | 88 | 1002.4 |
| 20260830160208 | 65 | 298 | 9.0 | 23.0 | 0.00 | 0.19 | 0.19 | 88 | 1002.4 |
| 20260830154206 | 66 | 296 | 13.0 | 23.0 | 0.00 | 0.19 | 0.19 | 88 | 1002.2 |
| 20260830152707 | 67 | 282 | 9.0 | 14.0 | 0.00 | 0.19 | 0.19 | 88 | 1001.7 |
| 20260830152208 | 67 | 274 | 10.0 | 15.0 | 0.00 | 0.19 | 0.19 | 89 | 1001.7 |
| 20260830151206 | 67 | 288 | 12.0 | 16.0 | 0.00 | 0.19 | 0.19 | 89 | 1001.6 |
| 20260830150205 | 68 | 274 | 13.0 | 22.0 | 0.00 | 0.19 | 0.19 | 90 | 1001.1 |
| 20260830143706 | 67 | 247 | 9.0 | 14.0 | 0.01 | 0.19 | 0.19 | 92 | 1000.7 |
| 20260830143207 | 67 | 256 | 6.0 | 16.0 | 0.04 | 0.19 | 0.19 | 91 | 1000.7 |
| 20260830142205 | 67 | 208 | 9.0 | 15.0 | 0.07 | 0.19 | 0.19 | 91 | 1000.7 |
| 20260830140708 | 66 | 228 | 9.0 | 15.0 | 0.07 | 0.19 | 0.19 | 91 | 1000.5 |
| 20260830135705 | 66 | 205 | 10.0 | 20.0 | 0.07 | 0.19 | 0.19 | 91 | 1000.5 |
| 20260830133706 | 66 | 183 | 9.0 | 15.0 | 0.06 | 0.18 | 0.18 | 90 | 1000.4 |
| 20260830132708 | 66 | 177 | 9.0 | 18.0 | 0.00 | 0.12 | 0.12 | 91 | 1000.3 |
| 20260830131206 | 66 | 181 | 12.0 | 25.0 | 0.00 | 0.12 | 0.12 | 91 | 1000.2 |
| 20260830130205 | 66 | 183 | 14.0 | 28.0 | 0.00 | 0.12 | 0.12 | 91 | 1000.1 |
| 20260830125206 | 66 | 196 | 10.0 | 16.0 | 0.00 | 0.12 | 0.12 | 91 | 1000.1 |
| 20260830123204 | 66 | 172 | 9.0 | 16.0 | 0.01 | 0.12 | 0.12 | 91 | 1000.1 |
| 20260830122704 | 65 | 194 | 10.0 | 17.0 | 0.01 | 0.12 | 0.12 | 91 | 1000.0 |
| 20260830122205 | 65 | 191 | 10.0 | 21.0 | 0.01 | 0.12 | 0.12 | 91 | 1000.0 |
| 20260830121705 | 65 | 185 | 9.0 | 16.0 | 0.02 | 0.12 | 0.12 | 91 | 1000.0 |
| 20260830120207 | 65 | 201 | 9.0 | 16.0 | 0.02 | 0.12 | 0.12 | 91 | 1000.1 |
| 20260830115205 | 65 | 186 | 11.0 | 16.0 | 0.02 | 0.12 | 0.12 | 91 | 1000.1 |
| 20260830112707 | 65 | 195 | 14.0 | 21.0 | 0.01 | 0.11 | 0.11 | 91 | 1000.0 |